TimeEST,TemperatureF,Dew PointF,Humidity,Sea Level PressureIn,VisibilityMPH,Wind Direction,Wind SpeedMPH,Gust SpeedMPH,PrecipitationIn,Events,Conditions,WindDirDegrees,DateUTC
12:53 AM,14.0,1.0,56,29.96,10.0,West,3.5,-,N/A,,Clear,280,2013-01-02 05:53:00
1:53 AM,14.0,-0.0,54,29.98,10.0,West,5.8,-,N/A,,Clear,270,2013-01-02 06:53:00
2:53 AM,14.0,1.0,56,29.98,10.0,West,5.8,-,N/A,,Clear,270,2013-01-02 07:53:00
3:53 AM,12.9,1.0,59,29.97,10.0,West,3.5,-,N/A,,Clear,270,2013-01-02 08:53:00
4:53 AM,12.9,-0.0,56,29.96,10.0,Calm,Calm,-,N/A,,Clear,0,2013-01-02 09:53:00
5:53 AM,12.0,1.0,61,29.97,10.0,Calm,Calm,-,N/A,,Clear,0,2013-01-02 10:53:00
6:53 AM,10.4,1.4,67,29.89,10.0,SSE,4.6,-,N/A,,Mostly Cloudy,150,2013-01-02 11:53:00
7:53 AM,12.0,1.0,61,29.95,10.0,South,4.6,-,N/A,,Mostly Cloudy,190,2013-01-02 12:53:00
8:53 AM,14.0,3.9,64,29.95,10.0,SW,3.5,-,N/A,,Overcast,220,2013-01-02 13:53:00
9:53 AM,19.0,6.1,57,29.96,10.0,WSW,10.4,-,N/A,,Overcast,250,2013-01-02 14:53:00
10:53 AM,21.9,8.1,55,29.95,10.0,WSW,8.1,-,N/A,,Partly Cloudy,250,2013-01-02 15:53:00
11:53 AM,25.0,10.9,55,29.94,10.0,West,12.7,19.6,N/A,,Mostly Cloudy,260,2013-01-02 16:53:00
12:53 PM,24.1,10.9,57,29.94,10.0,WNW,15.0,20.7,N/A,,Overcast,290,2013-01-02 17:53:00
1:53 PM,24.1,12.9,62,29.95,10.0,WSW,5.8,-,N/A,,Mostly Cloudy,240,2013-01-02 18:53:00
2:53 PM,25.0,10.0,53,29.99,10.0,NNW,13.8,21.9,N/A,,Mostly Cloudy,330,2013-01-02 19:53:00
3:53 PM,23.0,10.0,58,30.01,10.0,NW,11.5,19.6,N/A,,Mostly Cloudy,320,2013-01-02 20:53:00
4:53 PM,19.9,6.1,55,30.04,10.0,NNW,10.4,-,N/A,,Partly Cloudy,340,2013-01-02 21:53:00
5:53 PM,19.0,3.9,52,30.07,10.0,NNW,5.8,-,N/A,,Partly Cloudy,340,2013-01-02 22:53:00
6:53 PM,17.1,1.9,52,30.10,10.0,North,15.0,-,N/A,,Clear,350,2013-01-02 23:53:00
7:53 PM,12.9,-0.0,56,30.12,10.0,NW,11.5,18.4,N/A,,Clear,320,2013-01-03 00:53:00
8:53 PM,10.0,-4.0,53,30.14,10.0,NW,12.7,-,N/A,,Clear,320,2013-01-03 01:53:00
9:53 PM,8.1,-6.0,53,30.16,10.0,WNW,16.1,23.0,N/A,,Clear,290,2013-01-03 02:53:00
10:53 PM,6.1,-9.0,50,30.16,10.0,NW,13.8,-,N/A,,Clear,310,2013-01-03 03:53:00
11:53 PM,5.0,-9.0,52,30.17,10.0,NNW,9.2,16.1,N/A,,Clear,330,2013-01-03 04:53:00